EW3381 Weather Reports


Display with metric or nautical units.
time (UTC)temp
F
wind
direction
speed
MPH
gust
MPH
rain 1hr
in
rain 24hr
in
rain mn
in
humidity
%
barometer
mb
20180426152847 52 200 2.0 13.0 0.00 0.07 0.07 68 1008.8
20180426151821 51 277 1.0 6.0 0.00 0.07 0.07 69 1008.7
20180426150823 52 235 2.0 10.0 0.00 0.07 0.07 67 1008.6
20180426145832 52 137 3.0 13.0 0.00 0.07 0.07 66 1008.6
20180426144802 51 211 2.0 15.0 0.00 0.07 0.07 73 1008.6
20180426143828 52 238 5.0 15.0 0.00 0.07 0.07 70 1008.6
20180426142803 53 154 4.0 15.0 0.00 0.07 0.07 69 1008.5
20180426141800 52 213 5.0 15.0 0.00 0.07 0.07 70 1008.4
20180426140805 52 342 4.0 13.0 0.00 0.07 0.07 69 1008.4
20180426135822 51 105 4.0 12.0 0.00 0.07 0.07 71 1008.2
20180426134813 51 156 2.0 9.0 0.00 0.09 0.07 76 1008.1
20180426133749 51 344 2.0 13.0 0.00 0.09 0.07 71 1008.0
20180426132806 51 125 3.0 13.0 0.00 0.09 0.07 70 1008.2
20180426131825 52 197 4.0 11.0 0.00 0.09 0.07 71 1008.3
20180426130833 51 277 4.0 12.0 0.00 0.09 0.07 72 1008.3
20180426125812 51 281 4.0 13.0 0.00 0.09 0.07 71 1008.3
20180426124811 50 255 5.0 13.0 0.00 0.09 0.07 72 1008.1
20180426123746 50 229 4.0 12.0 0.00 0.09 0.07 73 1008.1
20180426122719 49 146 3.0 12.0 0.00 0.09 0.07 75 1007.9
20180426121733 49 136 4.0 12.0 0.00 0.09 0.07 77 1008.0
20180426120709 47 205 3.0 8.0 0.00 0.09 0.07 84 1008.0
20180426115715 46 173 1.0 16.0 0.00 0.09 0.07 83 1008.0
20180426114704 46 198 4.0 16.0 0.00 0.09 0.07 83 1008.0
20180426113721 50 60 4.0 12.0 0.00 0.08 0.06 75 1007.5
20180426112706 50 279 2.0 12.0 0.00 0.08 0.06 78 1007.4
20180426111649 49 202 4.0 11.0 0.00 0.08 0.06 78 1007.4
20180426105539 49 173 3.0 14.0 0.00 0.08 0.06 79 1007.4
20180426103413 49 141 4.0 12.0 0.00 0.08 0.06 79 1007.2
20180426102353 48 160 3.0 13.0 0.00 0.08 0.06 81 1007.4
20180426101325 47 171 5.0 13.0 0.00 0.08 0.06 81 1007.4
20180426100310 47 163 5.0 12.0 0.00 0.08 0.06 83 1006.8
20180426095329 47 198 4.0 11.0 0.00 0.08 0.06 82 1006.8
20180426094343 47 68 2.0 8.0 0.00 0.08 0.06 82 1006.7
20180426093324 47 186 3.0 10.0 0.00 0.08 0.06 82 1006.8
20180426092346 47 169 4.0 12.0 0.00 0.08 0.06 84 1006.9
20180426090319 46 184 3.0 11.0 0.00 0.08 0.06 87 1006.8
20180426085341 45 185 2.0 7.0 0.00 0.08 0.06 87 1006.9
20180426084339 44 189 2.0 8.0 0.00 0.08 0.06 87 1006.9
20180426083347 44 156 2.0 8.0 0.00 0.08 0.06 88 1006.8
20180426082410 44 157 2.0 9.0 0.00 0.08 0.06 88 1006.8
20180426081413 44 202 2.0 9.0 0.00 0.07 0.05 87 1006.7
20180426080425 45 184 3.0 8.0 0.00 0.07 0.05 87 1006.5
20180426075430 45 181 3.0 9.0 0.00 0.07 0.05 87 1006.5
20180426074432 44 202 3.0 9.0 0.00 0.07 0.05 87 1006.4
20180426073432 44 201 2.0 7.0 0.00 0.07 0.05 89 1006.2
20180426072443 43 125 2.0 10.0 0.00 0.07 0.05 90 1006.2
20180426071419 43 202 3.0 12.0 0.00 0.07 0.05 90 1006.1
20180426070423 43 201 3.0 12.0 0.00 0.07 0.05 90 1006.0
20180426065431 43 137 3.0 9.0 0.00 0.07 0.05 90 1005.9
20180426064427 42 132 2.0 8.0 0.00 0.07 0.05 91 1005.9
20180426063400 42 147 2.0 8.0 0.00 0.07 0.05 92 1005.9
20180426062412 42 182 2.0 12.0 0.00 0.07 0.05 92 1005.9
20180426061343 41 230 2.0 12.0 0.00 0.07 0.05 91 1005.8
20180426060343 41 159 1.0 5.0 0.00 0.07 0.05 90 1005.6
20180426055358 41 154 2.0 7.0 0.00 0.07 0.05 90 1005.6
20180426054350 41 218 3.0 10.0 0.04 0.07 0.05 89 1005.7
20180426053355 42 206 4.0 10.0 0.06 0.07 0.04 89 1005.8
20180426052331 42 163 3.0 10.0 0.05 0.06 0.03 91 1005.8
20180426051335 42 156 2.0 9.0 0.00 0.05 0.03 89 1005.6
20180426050327 42 213 3.0 12.0 0.00 0.04 0.02 86 1005.6
20180426045307 42 96 3.0 12.0 0.00 0.04 0.02 87 1005.4
20180426044329 42 165 3.0 8.0 0.00 0.04 0.02 89 1005.4
20180426043342 42 219 3.0 10.0 0.00 0.04 0.02 90 1005.5
20180426042359 43 144 3.0 12.0 0.00 0.04 0.02 90 1005.4
20180426041353 43 131 3.0 12.0 0.00 0.04 0.02 89 1005.5
20180426040332 43 129 3.0 10.0 0.00 0.04 0.02 89 1005.4
20180426035319 43 205 3.0 9.0 0.00 0.04 0.02 89 1005.4
20180426034344 42 159 3.0 9.0 0.00 0.04 0.02 89 1005.4
20180426033403 42 120 2.0 13.0 0.00 0.04 0.02 89 1005.4
20180426032422 43 246 3.0 13.0 0.00 0.04 0.02 89 1005.4
20180426031436 42 226 2.0 10.0 0.00 0.04 0.02 89 1005.5
20180426030402 42 147 2.0 8.0 0.00 0.04 0.02 89 1005.5
20180426025414 42 152 2.0 9.0 0.00 0.04 0.02 90 1005.5
20180426024436 43 252 2.0 9.0 0.00 0.03 0.01 90 1005.6
20180426023408 43 176 3.0 6.0 0.00 0.03 0.01 89 1005.6
20180426022420 42 176 1.0 6.0 0.00 0.04 0.01 89 1005.5
20180426021415 42 286 2.0 6.0 0.00 0.04 0.01 88 1005.7
20180426020351 43 261 2.0 9.0 0.00 0.04 0.01 88 1005.7
20180426015327 43 206 2.0 9.0 0.00 0.04 0.01 88 1005.6
20180426014326 43 165 2.0 9.0 0.00 0.04 0.01 90 1005.7
20180426013312 43 244 2.0 8.0 0.00 0.04 0.01 90 1005.8
20180426012240 43 232 2.0 8.0 0.00 0.04 0.01 88 1005.8
20180426011242 43 228 2.0 8.0 0.00 0.04 0.01 87 1005.7
20180426010229 43 200 2.0 11.0 0.00 0.04 0.01 89 1005.6
20180426005248 43 167 3.0 11.0 0.00 0.04 0.01 90 1005.7
20180426004243 43 179 3.0 9.0 0.00 0.04 0.01 90 1005.7
20180426003247 43 193 2.0 7.0 0.00 0.04 0.01 90 1005.6
20180426002307 43 228 3.0 8.0 0.00 0.04 0.01 89 1005.6
20180426001238 44 171 3.0 12.0 0.00 0.04 0.01 89 1005.6
20180426000206 43 138 2.0 8.0 0.00 0.04 0.01 89 1005.6
20180425235204 43 187 1.0 6.0 0.00 0.04 0.01 90 1005.5
20180425234224 43 217 1.0 4.0 0.00 0.04 0.01 91 1005.5
20180425233241 43 213 1.0 4.0 0.00 0.03 0.00 91 1005.6
20180425232223 43 207 1.0 6.0 0.00 0.03 0.00 90 1005.5
20180425231210 43 170 2.0 7.0 0.00 0.03 0.00 89 1005.6
20180425230229 43 219 2.0 7.0 0.00 0.03 0.00 89 1005.7
20180425225216 43 270 1.0 8.0 0.00 0.03 0.03 89 1005.6
20180425224201 43 168 1.0 8.0 0.00 0.03 0.03 88 1005.6
20180425223129 43 157 1.0 5.0 0.00 0.03 0.03 88 1005.6
20180425222132 44 173 1.0 5.0 0.00 0.03 0.03 88 1005.7
20180425221152 44 272 1.0 6.0 0.00 0.03 0.03 86 1005.7
20180425220123 44 149 1.0 6.0 0.00 0.03 0.03 86 1005.7
20180425215137 44 192 1.0 4.0 0.00 0.06 0.03 86 1005.7
20180425214105 44 139 0.0 3.0 0.00 0.07 0.03 87 1005.6
20180425213050 44 215 0.0 3.0 0.00 0.07 0.03 87 1005.7
20180425212017 44 160 0.0 3.0 0.00 0.07 0.03 87 1005.7
20180425210958 44 174 0.0 2.0 0.00 0.07 0.03 87 1005.6
20180425205933 44 148 0.0 2.0 0.00 0.07 0.03 86 1005.7
20180425204939 44 218 0.0 1.0 0.00 0.07 0.03 86 1005.7
20180425203917 44 211 0.0 3.0 0.00 0.07 0.03 86 1005.6
20180425202853 44 208 0.0 3.0 0.00 0.07 0.03 85 1005.5
20180425201905 44 154 0.0 4.0 0.00 0.07 0.03 85 1005.5
20180425200906 44 196 1.0 5.0 0.00 0.07 0.03 84 1005.4
20180425195851 44 186 1.0 5.0 0.00 0.07 0.03 84 1005.3
20180425194908 45 146 1.0 5.0 0.00 0.07 0.03 83 1005.3
20180425193910 45 146 1.0 4.0 0.00 0.07 0.03 82 1005.2
20180425192851 45 175 1.0 8.0 0.00 0.07 0.03 81 1005.1
20180425191836 46 222 2.0 8.0 0.00 0.07 0.03 81 1005.0
20180425190835 46 146 2.0 7.0 0.00 0.07 0.03 80 1005.0
20180425185835 46 159 2.0 6.0 0.00 0.07 0.03 79 1005.0
20180425184818 46 226 2.0 8.0 0.00 0.07 0.03 79 1004.9
20180425183806 47 179 2.0 10.0 0.00 0.07 0.03 78 1004.8
20180425182735 47 144 3.0 10.0 0.00 0.07 0.03 76 1004.8
20180425181739 48 155 2.0 8.0 0.00 0.07 0.03 76 1004.7
20180425180729 48 216 2.0 10.0 0.00 0.07 0.03 75 1004.6
20180425175730 48 174 4.0 10.0 0.00 0.07 0.03 73 1004.5
20180425174704 48 243 4.0 13.0 0.00 0.07 0.03 73 1004.5
20180425173703 49 130 4.0 13.0 0.00 0.07 0.03 72 1004.6
20180425172632 49 101 2.0 9.0 0.00 0.07 0.03 74 1004.6
20180425171655 49 91 4.0 9.0 0.00 0.07 0.03 74 1004.6
20180425170652 50 202 2.0 10.0 0.00 0.07 0.03 74 1004.7
20180425165701 50 199 3.0 10.0 0.00 0.07 0.03 73 1004.7
20180425164727 51 192 3.0 12.0 0.00 0.07 0.03 72 1004.7
20180425163719 52 174 4.0 12.0 0.00 0.07 0.03 69 1004.6
20180425162646 51 256 4.0 13.0 0.00 0.07 0.03 66 1004.5
20180425161700 52 181 3.0 13.0 0.00 0.07 0.03 68 1004.4
20180425160715 52 209 3.0 11.0 0.00 0.07 0.03 66 1004.5
20180425155654 52 245 3.0 11.0 0.00 0.07 0.03 68 1004.4
20180425154708 52 231 3.0 12.0 0.00 0.07 0.03 69 1004.5
20180425153726 51 145 3.0 12.0 0.00 0.07 0.03 70 1004.4